Regional Weather Roundup
Issued by NWS Portland, ME

Home | Current Version | Previous Version | Text Only | Print | Product List | Glossary On
Versions: 1 2 3 4 5 6 7 8 9 10 11 12 13 14 15 16 17 18 19 20 21 22 23 24 25 26 27 28 29 30 31 32 33 34 35 36 37 38 39 40 41 42 43 44 45 46 47 48 49 50
000
ASUS41 KGYX 042310
RWRGYX
WEATHER ROUNDUP FOR MAINE AND NEW HAMPSHIRE
NATIONAL WEATHER SERVICE GRAY ME
600 PM EST SUN DEC 04 2016

MEZ002-005-006-010-012-015-018-020-021-024-026-027-029-050000-
MAINE

CITY           SKY/WX    TMP DP  RH WIND       PRES   REMARKS
PORTLAND       CLEAR     31  17  56 N8        30.18S
SANFORD        CLEAR     30  20  66 NW3       30.17F
BAR HARBOR     CLEAR     28  19  69 NW5       30.17R
WISCASSET      CLEAR     32  18  56 CALM      30.19S
ROCKLAND       CLEAR     29  19  66 W3        30.18R
FRYEBURG       CLEAR     26  16  65 CALM      30.17S
LEWISTONAUBURN CLEAR     29  19  66 NW5       30.18S
AUGUSTA        CLEAR     29  17  61 NW7       30.18R
WATERVILLE     CLEAR     28  18  66 N8        30.16R
BANGOR         CLEAR     25  17  72 NW6       30.17R
GREENVILLE       N/A     20  17  88 NW8       30.09R
MILLINOCKET    CLEAR     24  16  71 W5        30.16R
HOULTON        PTCLDY    17  15  92 NW5       30.11S
PRESQUE ISLE   PTCLDY    12   8  84 CALM      30.13S
FRENCHVILLE    CLEAR     17  12  80 NW8       30.08S
CARIBOU        CLEAR     17  13  84 NW6       30.11R
$$

NHZ002-005-008-009-011-012-014-050000-
NEW HAMPSHIRE

CITY           SKY/WX    TMP DP  RH WIND       PRES   REMARKS
PORTSMOUTH     PTCLDY    31  19  59 NW6       30.17S
ROCHESTER      CLEAR     30  17  58 NW5       30.16F
NASHUA         CLEAR     34  20  56 NW6       30.19R
MANCHESTER     CLEAR     33  19  56 NW5       30.17S
CONCORD        CLEAR     31  19  61 NW7       30.18F
LACONIA        CLEAR     30  20  66 CALM      30.17F
PLYMOUTH         N/A     29  20  67 CALM      30.19S
BERLIN         CLEAR     21  15  78 NE3       30.17S
WHITEFIELD     MOCLDY    26  16  65 NW3       30.18S
JAFFREY        CLEAR     28  20  71 CALM      30.15S
KEENE          CLEAR     28  22  78 CALM      30.19S
LEBANON        PTCLDY    30  21  69 NE6       30.19S
MT WASHINGTON  MOCLDY    10  -6  48 N29         N/A  WCI -11
$$

VTZ005-007-008-050000-
VERMONT

CITY           SKY/WX    TMP DP  RH WIND       PRES   REMARKS
ST JOHNSBURY     N/A     29  18  63 MISG      30.19S
MONTPELIER     PTCLDY    25  19  78 CALM      30.21F
BURLINGTON     MOCLDY    32  22  66 NE8       30.22S
$$

MAZ007-012-024-CTZ003-RIZ002-NYZ038-NYZ072-050000-
SOUTHERN NEW ENGLAND AND NY

CITY           SKY/WX    TMP DP  RH WIND       PRES   REMARKS
BOSTON         PTCLDY    39  19  44 N8        30.19R
WORCESTER      CLEAR     32  17  54 N5        30.15S
NANTUCKET      CLEAR     36  23  59 N5        30.18R
PROVIDENCE     PTCLDY    36  19  50 W5        30.19R
HARTFORD       PTCLDY    32  19  58 W5        30.20R
ALBANY         PTCLDY    29  19  66 CALM      30.23S
NEW YORK CITY  MOCLDY    45  23  42 NE8       30.20R
$$

ANZ081-ANZ082-ANZ150-NHZ014-MEZ023>029-050000-
COASTAL MARINE OBSERVATIONS

STATION/POSITION TIME  TEMP    WIND        PRES    WAVE
                       AIR SEA DIR/SP/G            HT/PER
                 (UTC) (F)     (DEG/KT/KT) (MB)    (FT/S)
MOUNT DESERT ROC 2300   33                 1021.1R
MATINICUS ROCK   2200   36     320/ 21/ 24 1020.2R
ISLE OF SHOALS   2200   38     310/ 20/ 21 1021.2R
JEFFREYS LEDGE   2238      51                N/A     3/ 3
CASHES LEDGE BUO 2250   39 50  310/ 17/ 21 1020.9R   4/ 5
GEORGES BANK BUO 2250   43 51              1017.9R   9/ 8
$$

.............KEY..............
   WCI - WIND CHILL
   TC  - TEMPERATURE IN CELSIUS
   VSB - VISIBILITY IN MILES
   HX  - HEAT INDEX
   FAIR- INDICATES FEW OR NO CLOUDS BELOW 12,000 FT, WITH NO
         SIGNIFICANT WEATHER AND/OR OBSTRUCTIONS TO VISIBILITY.






USA.gov is the U.S. government's official web portal to all federal, state and local government web resources and services.